Volver al catálogo

COSMOS 1275 DEB

ActivoPO
NORAD 14441·DEBRIS·🇷🇺 Russia

Lanzado Jun 4, 1981 desde Plesetsk Cosmodrome

Loading…

Próximos Pases (próximas 24 horas)

TLE

ActualizadoSource: Space-Track

Época: Sep 14, 2026, 14:32 UTC

1 14441U 81053JH  26257.60605905  .00001809  00000-0  95626-3 0  9993
2 14441  83.1133 204.9830 0046360  58.5558 302.0139 14.12739115285698

Sigue COSMOS 1275 DEB en tiempo real con AllMySat

Download on the App Store